Redmond, OR

5:14 AM PDT on July 22, 2017 (GMT -0700)
Roberts Field Airport

Weather History for KRDM - April, 2014

Change the Weather History Date:

Friday, April 25, 2014

  Actual Average Record
Temperature  
Mean Temperature 40 °F 46 °F  
Max Temperature 49 °F 62 °F 77 °F (1977)
Min Temperature 30 °F 30 °F 18 °F (1975)
Degree Days  
Heating Degree Days 25 19  
Month to date heating degree days 484 528  
Since 1 July heating degree days 5998 5979  
Cooling Degree Days 0 0  
Month to date cooling degree days 0 0  
Year to date cooling degree days 0 0  
Moisture  
Dew Point 31 °F    
Average Humidity 71    
Maximum Humidity 100    
Minimum Humidity 42    
Precipitation  
Precipitation 0.10 in 0.03 in 0.95 in (1978)
Month to date precipitation 0.58 0.60  
Year to date precipitation 3.09 2.88  
Sea Level Pressure  
Sea Level Pressure 29.81 in    
Wind  
Wind Speed 6 mph (NW)    
Max Wind Speed 23 mph    
Max Gust Speed 27 mph    
Visibility 10 miles    
Events Rain    
T = Trace of Precipitation, MM = Missing Value Source: NWS Daily Summary

Daily Weather History Graph

Daily Weather History Graph

Search for Another Location

Airport or City:

Trip Planner

Search our weather history database for the weather conditions in past years. The results will help you decide how hot, cold, wet, or windy it might be!

Date:

Astronomy

Apr. 25, 2014 Rise Set
Actual Time 6:04 AM PDT 8:01 PM PDT
Civil Twilight 5:33 AM PDT 8:32 PM PDT
Nautical Twilight 4:55 AM PDT 9:10 PM PDT
Astronomical Twilight 4:13 AM PDT 9:52 PM PDT
Moon 4:04 AM PDT (4/25) 4:21 PM PDT (4/25)
Length of Visible Light 14h 59m
Length of Day
13h 56m
Waning Crescent, 14% of the Moon is Illuminated
Apr 25
Waning Crescent
Apr 28
New
May 6
First Quarter
May 14
Full
May 21
Last Quarter

Hourly Weather History & Observations

Time (PDT) Temp. Windchill Dew Point Humidity Pressure Visibility Wind Dir Wind Speed Gust Speed Precip Events Conditions
12:56 AM 39.9 °F - 34.0 °F 79% 29.84 in 10.0 mi Calm Calm - N/A   Overcast
1:19 AM 39.0 °F 33.4 °F 33.1 °F 79% 29.85 in 10.0 mi NW 8.1 mph - 0.00 in Rain Light Rain
1:56 AM 36.0 °F 33.3 °F 32.0 °F 86% 29.85 in 10.0 mi NW 3.5 mph - 0.05 in Rain Light Rain
2:56 AM 34.0 °F - 32.0 °F 92% 29.84 in 9.0 mi Calm Calm - 0.03 in Rain Light Rain
3:13 AM 34.0 °F 28.8 °F 32.0 °F 92% 29.83 in 10.0 mi ESE 5.8 mph - 0.00 in   Overcast
3:56 AM 34.0 °F 31.0 °F 32.0 °F 92% 29.83 in 10.0 mi SE 3.5 mph - 0.00 in   Overcast
4:56 AM 34.0 °F 31.0 °F 33.1 °F 96% 29.82 in 10.0 mi South 3.5 mph - N/A   Overcast
5:56 AM 34.0 °F 31.0 °F 32.0 °F 92% 29.82 in 10.0 mi ESE 3.5 mph - N/A   Overcast
7:41 AM 36.0 °F 31.1 °F 34.0 °F 93% 29.81 in 10.0 mi South 5.8 mph - N/A   Overcast
7:56 AM 37.0 °F 32.4 °F 34.0 °F 89% 29.83 in 10.0 mi South 5.8 mph - N/A   Mostly Cloudy
8:56 AM 39.9 °F 37.8 °F 33.1 °F 77% 29.83 in 10.0 mi Variable 3.5 mph - N/A   Mostly Cloudy
9:16 AM 39.9 °F - 30.9 °F 70% 29.80 in 10.0 mi Calm Calm - N/A   Mostly Cloudy
9:56 AM 42.1 °F 39.2 °F 30.9 °F 65% 29.81 in 10.0 mi Variable 4.6 mph - N/A   Mostly Cloudy
10:56 AM 44.1 °F 40.8 °F 30.0 °F 58% 29.80 in 10.0 mi East 5.8 mph - N/A   Mostly Cloudy
11:03 AM 45.0 °F 41.8 °F 30.0 °F 56% 29.78 in 10.0 mi East 5.8 mph - N/A   Mostly Cloudy
11:56 AM 46.0 °F - 28.0 °F 50% 29.78 in 10.0 mi Calm Calm - N/A   Mostly Cloudy
12:56 PM 46.0 °F 39.9 °F 30.9 °F 56% 29.77 in 10.0 mi WNW 13.8 mph - N/A   Mostly Cloudy
1:56 PM 46.9 °F - 28.0 °F 48% 29.77 in 10.0 mi NW 11.5 mph - N/A   Mostly Cloudy
2:56 PM 48.0 °F - 26.1 °F 42% 29.76 in 10.0 mi Variable 4.6 mph - N/A   Clear
3:56 PM 44.1 °F 36.8 °F 28.9 °F 55% 29.78 in 10.0 mi NW 16.1 mph 24.2 mph 0.01 in Rain Light Rain
4:56 PM 48.0 °F - 28.0 °F 46% 29.77 in 10.0 mi NNW 9.2 mph - 0.00 in   Mostly Cloudy
5:56 PM 46.0 °F 40.2 °F 28.9 °F 51% 29.78 in 10.0 mi NW 12.7 mph - N/A   Clear
6:56 PM 45.0 °F 37.9 °F 30.0 °F 56% 29.79 in 10.0 mi NNW 16.1 mph - N/A   Mostly Cloudy
7:06 PM 42.1 °F 34.5 °F 32.0 °F 67% 29.78 in 10.0 mi NNW 15.0 mph - N/A   Overcast
7:19 PM 41.0 °F 33.1 °F 33.1 °F 73% 29.78 in 10.0 mi North 15.0 mph - N/A   Overcast
7:56 PM 39.0 °F 34.0 °F 34.0 °F 82% 29.83 in 8.0 mi North 6.9 mph - 0.00 in Rain Light Rain
8:16 PM 37.9 °F 32.1 °F 34.0 °F 86% 29.80 in 10.0 mi North 8.1 mph - 0.01 in Rain Light Rain
8:28 PM 37.0 °F 33.3 °F 33.1 °F 86% 29.79 in 10.0 mi North 4.6 mph - 0.01 in   Mostly Cloudy
8:56 PM 37.0 °F - 33.1 °F 86% 29.83 in 10.0 mi Calm Calm - 0.01 in   Clear
9:56 PM 37.0 °F 29.8 °F 28.9 °F 73% 29.83 in 10.0 mi West 10.4 mph - N/A   Mostly Cloudy
10:56 PM 36.0 °F 30.3 °F 28.0 °F 73% 29.83 in 10.0 mi WNW 6.9 mph - N/A   Mostly Cloudy
11:05 PM 37.0 °F 32.4 °F 28.0 °F 70% 29.80 in 10.0 mi WNW 5.8 mph - N/A   Mostly Cloudy
11:12 PM 37.0 °F 31.0 °F 28.0 °F 70% 29.80 in 10.0 mi WNW 8.1 mph - N/A   Mostly Cloudy
11:56 PM 35.1 °F 30.1 °F 27.0 °F 72% 29.82 in 10.0 mi WNW 5.8 mph - N/A   Mostly Cloudy